Content
SEND FEEDBACK

Daily
Averages
Monthly
Summary
Mexico

PUEBLA - JARDINES DE SAN MANUEL, PUEBLA


Home > North America > Mexico > Puebla
Elevation: 2122 meters     Latitude: 19 00N     Longitude: 098 11W

WEATHER
 
SELECT A DAY
Number of Records: 121,150;   Date Range: 1/1/95 - 9/15/14
 
SHARE

PRINT THIS DATA

[ ← Previous Day ]
WEATHER ALMANAC - 4 APRIL, 2013
[ Next Day → ]
[ °F ]   °C
Weather ElementAverageHighLow
Temperature18.7 °C27.8 °C (2:40 pm)8 °C (4:56 am)
Dewpoint4.2 °C11.7 °C (8:45 pm)-4 °C (5:40 pm)
Humidity40.1 %71 % (6:40 am)13 % (5:40 pm)
Barometer1020.7 hPa1028.4 hPa (9:40 pm)1001.7 hPa (5:40 pm)
Wind Speed14 km/h40.7 km/h (5:40 pm)
Wind Gust46.3 km/h (7:40 pm)
Weather ElementAverage
Visibility10.8 km
Wind DirectionSSW (186.4 °)

Weather ElementTotal
Precipitation---
Heating Degree Days0.4 (Base 18.3)
Growing Degree Days7.9 (Base 10)
Averaged from 30 records on 4 April, 2013
WEATHER CONDITIONS BREAKOUT
WIND DIRECTION BREAKOUT
WEATHER BY HOUR - 4 APRIL, 2013
[ °F ]   °C
Local TimeTemperatureDewpointHumidityBarometerVisibilityWind DirectionWind SpeedGust SpeedPrecipitationEventsConditions
1:40 AM12 °C2 °C51 %1025.7 hPa12.9 kmWNW (290°)7.4 km/hClear
2:41 AM11 °C1 °C50 %1025.4 hPa12.9 kmNNW (330°)5.6 km/hClear
2:45 AM15.6 °C6.7 °C43 %1006.1 hPa4.8 kmCalm
3:40 AM11 °C2 °C54 %1025.1 hPa12.9 kmNNW (330°)7.4 km/hClear
4:56 AM8 °C1 °C62 %1025.4 hPa9.7 kmNW (320°)9.3 km/hClear
5:43 AM9 °C3 °C66 %1026.1 hPa9.7 kmNW (320°)13 km/hClear
5:45 AM12.2 °C4.4 °C48 %1008.5 hPa4.8 kmCalm
6:40 AM9 °C4 °C71 %1026.8 hPa9.7 kmNNW (330°)9.3 km/hClear
7:40 AM13 °C4 °C54 %1027.4 hPa9.7 kmNNW (330°)11.1 km/hClear
8:40 AM17 °C6 °C48 %1027.8 hPa9.7 kmNorth (10°)13 km/hClear
8:50 AM17.2 °C6.7 °C39 %1012.5 hPa4.8 kmWNW (300°)3.5 km/hHaze
9:41 AM20 °C7 °C43 %1028.1 hPa9.7 kmCalmClear
10:45 AM22 °C5 °C33 %1027.4 hPa9.7 kmSSE (160°)9.3 km/hClear
11:40 AM24 °C3 °C25 %1026.8 hPa11.3 kmSSW (210°)20.4 km/hClear
11:50 AM26.1 °C9.4 °C24 %1010.8 hPa19.3 kmESE (120°)3.5 km/h
12:40 PM25 °C3 °C24 %1025.7 hPa11.3 kmSE (140°)18.5 km/h37 km/hClear
1:40 PM27 °C2 °C20 %1024.4 hPa12.9 kmSouth (180°)31.5 km/hPartly Cloudy
2:40 PM27.8 °C7.2 °C17 %1005.1 hPa9.7 kmSSE (160°)7.2 km/hHaze
2:42 PM26 °C2 °C21 %1023.7 hPa12.9 kmSSE (160°)25.9 km/h44.4 km/hPartly Cloudy
3:40 PM26 °C0 °C18 %1022.7 hPa14.5 kmSouth (170°)31.5 km/hScattered Clouds
4:40 PM26 °C-3 °C15 %1022.4 hPa14.5 kmSSW (200°)35.2 km/hScattered Clouds
5:40 PM26.7 °C3.9 °C13 %1001.7 hPa14.5 kmSouth (180°)3.5 km/hHaze
5:40 PM24 °C-4 °C15 %1022.4 hPa14.5 kmSouth (190°)40.7 km/hScattered Clouds
6:40 PM22 °C-4 °C17 %1023.4 hPa14.5 kmSouth (190°)35.2 km/hScattered Clouds
7:40 PM19 °C10 °C56 %1025.7 hPa9.7 kmSE (130°)27.8 km/h46.3 km/hMostly Cloudy
8:41 PM18 °C7 °C49 %1028.1 hPa11.3 kmENE (60°)5.6 km/hMostly Cloudy
8:45 PM17.2 °C11.7 °C60 %1004.1 hPa4.8 kmENE (60°)10.8 km/hHaze
9:40 PM17 °C8 °C55 %1028.4 hPa11.3 kmENE (60°)20.4 km/hMostly Cloudy
10:40 PM15 °C5 °C51 %1028.4 hPa11.3 kmSouth (170°)7.4 km/hScattered Clouds
11:45 PM16.1 °C10.6 °C62 %1007.5 hPa4.8 kmESE (120°)3.5 km/hHaze
Hourly data recorded from MMPB, located 0 kilometers away from Puebla - Jardines de San Manuel, Puebla







STORIES FROM OUR PARTNERS